Showing default

ZY 3 2, 41556

Orbit data source: Space-Track

ZY 3 2, 41556 is a Chinese payload satellite in SSO that was launched on Mon, 30 May 2016 UTC via a CHANG ZHENG 4B launch vehicle from the Taiyaun Space Center, China (TSC). Payload-class satellites include a variety of spacecraft equipped with specific instruments for various scientific and technological missions. These include communications satellites like Starlink; space stations such as the ISS; scientific satellites like the Hubble; Earth observation satellites from companies like Planet Labs, Umbra, and HawkEye 360; GPS; miniature CubeSats for education and research; and military/defense satellites.

Loading next visibility...
Identifier
41556, 2016-033A
Orbit
SSO
Country
Flag of CNCN / PRC
Related business
Manufacturer
CAST
Mission
Operational Civil Imaging
Bus & Motor
ZY, AOCS 20N
Mass
2,650 kg wet, ~2,600 kg dry
Launch date (UTC)
2016-05-30 (9 years ago)
Launch vehicle
CHANG ZHENG 4B
Launch site
Taiyaun Space Center, China (TSC)
Object type
Payload
Rocket body
Debris
Shape & HBR
Box + 2 Pan, 5.0 m
Radar Cross Section
10.304 m², Large (>1 m²)

Expand to show TLE details & history
Last TLE update: 5 hours ago

TLE from 5 hours ago
0 ZY 3 2
1 41556U 16033A   25299.16538545  .00009464  00000-0  42790-3 0  9996
2 41556  97.4082  14.1117 0012907  60.4603 299.7918 15.21068464522401
Epoch: 2025-10-26T03:58Z
TLE epoch observation values (Epoch: 2025-10-26T03:58:09.302Z)
Latitude
-0.00002°
Longitude
-80.21255°
Altitude
501.303 km
Speed
7.616 km/s
True Right ascension
00h 56m 26s
True Declination
0° 00' 00"
Sunlit
Object was in full shadow at epoch
Visualization orbit readout
Latitude
Unknown
Longitude
Unknown
Altitude
Unknown
Speed
Unknown
Apparent Right ascension
Unknown
Apparent Declination
Unknown
Sunlit
N/A
Visualization observer readout
Local Sidereal Time
04:11:06
Azimuth
Unknown
Elevation
Unknown
Doppler factor
Unknown
Orbital elements
Apogee altitude
508.458 km
Perigee altitude
490.704 km
Semi-major axis
6,877.718 km
Eccentricity
0.00129
Inclination
97.4082°
RAAN
14.1117°
Arg. of periapsis
60.4603°
True anomaly
299.66334°
Mean anomaly
299.7918°
Eccentric anomaly
299.72758°
Mean motion
3.80519 °/min
Orbital period
94.61 mins
BSTAR
0.0004279
Loading maneuver chart data...
Computing Atmospheric mass density...
Loading historical data...
Loading historical data...
Loading historical data...
Loading historical data...
Loading historical data...
Loading historical data...
Loading historical data...

Documentation

Showing up to 5 results
|